Left ArrowRight Arrow

30.00354, -91.81873

Hourly Observations for June 25, 2024

Temp ( °F °C ) Dew Point ( °F °C ) Humidity (%) Winds ( mph kmh ) Pressure ( in mb ) Visibility ( mi km ) Precip ( " mm )
12:53 am 00:53 Clear 78 25.6 77 25 96 96 W 3 6 29.93 1014 10 16 0.00 0.00
1:53 am 01:53 Clear 77 25 76 24.4 96 96 Calm 29.93 1014 10 16 0.00 0.00
2:53 am 02:53 Clear 78 25.6 77 25 96 96 W 3 6 29.92 1013 10 16 0.00 0.00
3:53 am 03:53 Mostly Clear 78 25.6 76 24.4 93 93 Calm 29.94 1014 10 16 0.00 0.00
4:53 am 04:53 Clear 78 25.6 76 24.4 93 93 WSW 5 7 29.94 1014 10 16 0.00 0.00
5:53 am 05:53 Clear 77 25 75 23.9 94 94 Calm 29.96 1014 10 16 0.00 0.00
6:53 am 06:53 Sunny 78 25.6 77 25 96 96 Calm 29.96 1015 10 16 0.00 0.00
7:53 am 07:53 Mostly Sunny 82 27.8 79 26.1 91 91 Calm 29.98 1015 10 16 0.00 0.00
8:53 am 08:53 Mostly Cloudy 85 29.4 78 25.6 80 80 WSW 6 9 29.99 1016 10 16 0.00 0.00
9:11 am 09:11 Cloudy 85 29.4 78 25.6 80 80 W 6 9 30.00 1016 10 16 0.00 0.00
9:43 am 09:43 Partly Cloudy 86 30 77 25 75 75 SW 6 9 30.00 1016 10 16 0.00 0.00
9:53 am 09:53 Mostly Cloudy 87 30.6 77 25 72 72 WNW 5 7 29.99 1016 10 16 0.00 0.00
10:53 am 10:53 Mostly Sunny 88 31.1 75 23.9 66 66 W 7 11 29.98 1015 10 16 0.00 0.00
11:53 am 11:53 Mostly Sunny 90 32.2 73 22.8 58 58 VRB 7 11 29.98 1015 10 16 0.00 0.00
12:53 pm 12:53 Mostly Sunny 91 32.8 74 23.3 58 58 VRB 6 9 29.97 1015 10 16 0.00 0.00
1:53 pm 13:53 Partly Cloudy 91 32.8 76 24.4 61 61 SSE 5 7 29.95 1014 10 16 0.00 0.00
2:53 pm 14:53 Partly Cloudy 93 33.9 78 25.6 62 62 VRB 7 11 29.94 1014 10 16 0.00 0.00
3:53 pm 15:53 Mostly Cloudy 92 33.3 78 25.6 64 64 SSW 8 13 29.93 1014 10 16 0.00 0.00
4:53 pm 16:53 Partly Cloudy 92 33.3 78 25.6 64 64 SSW 14 22 29.92 1013 10 16 0.00 0.00
5:53 pm 17:53 Mostly Cloudy 91 32.8 77 25 64 64 SSW 13 20 29.92 1013 10 16 0.00 0.00
6:53 pm 18:53 Cloudy 89 31.7 77 25 68 68 S 9 15 29.92 1013 10 16 0.00 0.00
7:53 pm 19:53 Sunny 86 30 77 25 75 75 S 9 15 29.91 1013 10 16 0.00 0.00
8:53 pm 20:53 Clear 83 28.3 77 25 82 82 SSW 7 11 29.92 1013 10 16 0.00 0.00
9:53 pm 21:53 Clear 81 27.2 78 25.6 91 91 SSW 3 6 29.92 1013 10 16 0.00 0.00
10:53 pm 22:53 Clear 81 27.2 77 25 88 88 SW 5 7 29.93 1014 10 16 0.00 0.00
11:53 pm 23:53 Clear 80 26.7 77 25 90 90 SW 3 6 29.95 1014 10 16 0.00 0.00

Powered by Vaisala Xweather